Regional Weather Roundup
Issued by NWS Sioux Falls, SD

Home | Current Version | Previous Version | Text Only | Print | Product List | Glossary On
Versions: 1 2 3 4 5 6 7 8 9 10 11 12 13 14 15 16 17 18 19 20 21 22 23 24 25 26 27 28 29 30 31 32 33 34 35 36 37 38 39 40 41 42 43 44 45 46 47 48 49 50
000
ASUS43 KFSD 162002
RWRFSD

WEATHER ROUNDUP FOR SE SOUTH DAKOTA/SW MINNESOTA/NW IOWA
NATIONAL WEATHER SERVICE SIOUX FALLS SD
200 PM CST SAT DEC 16 2017

NOTE: "FAIR" INDICATES FEW OR NO CLOUDS BELOW 12,000 FEET WITH NO
SIGNIFICANT WEATHER AND OR OBSTRUCTIONS TO VISIBILITY.


SDZ038>040-050-052>070-162100-
SOUTHEAST SOUTH DAKOTA

CITY           SKY/WX    TMP DP  RH WIND       PRES   REMARKS
BROOKINGS      CLOUDY    40  33  76 N14       29.89R
CHAMBERLAIN    CLOUDY    43  36  76 N10       29.92F
HURON          CLOUDY    42  34  73 N9        29.92R
MADISON        FAIR      39  37  93 N14       29.88S
MITCHELL       CLOUDY    44  35  70 N10       29.92S
SIOUX FALLS    CLOUDY    46  33  60 N17       29.88S
WINNER         CLOUDY    43  33  68 N8        29.94R
YANKTON        CLOUDY    44  32  62 NW17      29.89R
$$

MNZ071-072-080-081-089-090-097-098-162100-
SOUTHWEST MINNESOTA

CITY           SKY/WX    TMP DP  RH WIND       PRES   REMARKS
FAIRMONT       MOSUNNY   42  30  62 N9        29.87R
JACKSON        CLOUDY    41  30  65 NW16      29.87R
LUVERNE        MOSUNNY   43  30  61 N8        29.87S
MARSHALL       CLOUDY    38  30  73 N14       29.90R
MONTEVIDEO     MOSUNNY   36  28  75 NE10      29.90S
PIPESTONE      PTSUNNY   41  30  65 N8        29.88R
REDWOOD FALLS  MOSUNNY   37  30  75 N7        29.89R
WINDOM           N/A     43  25  49 NW15G21   29.87R
WORTHINGTON    CLOUDY    42  31  64 N15       29.87R
$$

IAZ001>003-012>014-020>022-031-032-NEZ013-014-SDZ071-162100-
NORTHWEST IOWA

CITY           SKY/WX    TMP DP  RH WIND       PRES   REMARKS
CHEROKEE       MOSUNNY   47  29  50 NW3       29.86R
ESTHERVILLE    CLOUDY    44  31  60 N13       29.85R
LE MARS        CLOUDY    46  30  53 N8        29.87R
ORANGE CITY    MOSUNNY   45  32  61 N8        29.86R
SHELDON        MOSUNNY   45  30  57 N9        29.84S
SIOUX CITY     MOSUNNY   49  30  48 NW7       29.87S
SPENCER        CLOUDY    47  31  53 N12       29.85R
STORM LAKE     CLOUDY    48  28  46 N9        29.85R
$$

ABBREVIATIONS USED IN REMARKS
   TC - TEMPERATURE IN CELSIUS
  WCI - WIND CHILL INDEX
   HX - HEAT INDEX
  VSB - VISIBILITY




USA.gov is the U.S. government's official web portal to all federal, state and local government web resources and services.